| time (UTC) | temp F | wind direction | speed MPH | gust MPH | rain 1hr in | rain 24hr in | rain mn in | humidity % | barometer mb |
| 20260906125030 | 79 | 95 | 0.0 | 0.0 | 0.00 | 0.00 | 0.00 | 99 | 1015.0 |
| 20260906124526 | 78 | 138 | 0.0 | 1.0 | 0.00 | 0.00 | 0.00 | 99 | 1014.9 |
| 20260906124021 | 79 | 105 | 0.0 | 0.0 | 0.00 | 0.00 | 0.00 | 99 | 1014.8 |
| 20260906123520 | 78 | 149 | 1.0 | 2.0 | 0.00 | 0.00 | 0.00 | 99 | 1014.8 |
| 20260906123015 | 78 | 94 | 0.0 | 0.0 | 0.00 | 0.00 | 0.00 | 99 | 1014.9 |
| 20260906122515 | 77 | 138 | 0.0 | 0.0 | 0.00 | 0.00 | 0.00 | 99 | 1015.0 |
| 20260906122011 | 77 | 84 | 1.0 | 1.0 | 0.00 | 0.00 | 0.00 | 99 | 1015.0 |
| 20260906121507 | 76 | 72 | 0.0 | 0.0 | 0.00 | 0.00 | 0.00 | 99 | 1014.9 |
| 20260906121003 | 76 | 100 | 0.0 | 0.0 | 0.00 | 0.00 | 0.00 | 99 | 1014.7 |
| 20260906120458 | 76 | 86 | 0.0 | 0.0 | 0.00 | 0.00 | 0.00 | 99 | 1014.8 |
| 20260906115955 | 76 | 98 | 0.0 | 0.0 | 0.00 | 0.00 | 0.00 | 99 | 1014.8 |
| 20260906115450 | 76 | 106 | 0.0 | 0.0 | 0.00 | 0.00 | 0.00 | 99 | 1014.7 |
| 20260906114950 | 75 | 106 | 0.0 | 1.0 | 0.00 | 0.00 | 0.00 | 99 | 1014.5 |
| 20260906114444 | 75 | 100 | 0.0 | 0.0 | 0.00 | 0.00 | 0.00 | 99 | 1014.4 |
| 20260906113940 | 75 | 101 | 0.0 | 0.0 | 0.00 | 0.00 | 0.00 | 99 | 1014.3 |
| 20260906113439 | 75 | 97 | 0.0 | 0.0 | 0.00 | 0.00 | 0.00 | 99 | 1014.3 |
| 20260906112935 | 75 | 97 | 0.0 | 0.0 | 0.00 | 0.00 | 0.00 | 99 | 1014.2 |
| 20260906112430 | 75 | 118 | 0.0 | 0.0 | 0.00 | 0.00 | 0.00 | 99 | 1014.3 |
| 20260906111925 | 75 | 98 | 0.0 | 0.0 | 0.00 | 0.00 | 0.00 | 99 | 1014.0 |
| 20260906111425 | 75 | 93 | 0.0 | 0.0 | 0.00 | 0.00 | 0.00 | 99 | 1014.2 |
| 20260906110920 | 75 | 97 | 0.0 | 0.0 | 0.00 | 0.00 | 0.00 | 99 | 1013.8 |
| 20260906110415 | 75 | 101 | 0.0 | 0.0 | 0.00 | 0.00 | 0.00 | 99 | 1014.0 |
| 20260906105914 | 75 | 98 | 0.0 | 0.0 | 0.00 | 0.00 | 0.00 | 99 | 1013.8 |
| 20260906105410 | 75 | 97 | 0.0 | 0.0 | 0.00 | 0.00 | 0.00 | 99 | 1013.9 |
| 20260906104906 | 75 | 103 | 0.0 | 0.0 | 0.00 | 0.00 | 0.00 | 99 | 1014.0 |
| 20260906104404 | 75 | 119 | 0.0 | 0.0 | 0.00 | 0.00 | 0.00 | 99 | 1014.1 |
| 20260906103903 | 75 | 94 | 0.0 | 0.0 | 0.00 | 0.00 | 0.00 | 99 | 1013.9 |
| 20260906103401 | 75 | 93 | 0.0 | 0.0 | 0.00 | 0.00 | 0.00 | 99 | 1013.8 |
| 20260906102858 | 75 | 93 | 0.0 | 0.0 | 0.00 | 0.00 | 0.00 | 99 | 1013.8 |
| 20260906102357 | 75 | 93 | 0.0 | 0.0 | 0.00 | 0.00 | 0.00 | 99 | 1013.7 |
| 20260906101851 | 75 | 86 | 0.0 | 0.0 | 0.00 | 0.00 | 0.00 | 99 | 1013.8 |
| 20260906101347 | 75 | 101 | 0.0 | 0.0 | 0.00 | 0.00 | 0.00 | 99 | 1013.7 |
| 20260906100842 | 75 | 89 | 0.0 | 0.0 | 0.00 | 0.00 | 0.00 | 99 | 1014.1 |
| 20260906100341 | 75 | 100 | 0.0 | 0.0 | 0.00 | 0.00 | 0.00 | 99 | 1013.7 |
| 20260906095837 | 75 | 100 | 0.0 | 0.0 | 0.00 | 0.00 | 0.00 | 99 | 1013.7 |
| 20260906095332 | 75 | 100 | 0.0 | 0.0 | 0.00 | 0.00 | 0.00 | 99 | 1013.9 |
| 20260906094831 | 75 | 106 | 0.0 | 0.0 | 0.00 | 0.00 | 0.00 | 99 | 1013.8 |
| 20260906094327 | 75 | 105 | 0.0 | 0.0 | 0.00 | 0.00 | 0.00 | 99 | 1013.8 |
| 20260906093823 | 75 | 88 | 0.0 | 0.0 | 0.00 | 0.00 | 0.00 | 99 | 1013.6 |
| 20260906093319 | 75 | 85 | 0.0 | 0.0 | 0.00 | 0.00 | 0.00 | 99 | 1013.8 |
| 20260906092814 | 75 | 100 | 0.0 | 0.0 | 0.00 | 0.00 | 0.00 | 99 | 1013.7 |
| 20260906092313 | 75 | 102 | 0.0 | 0.0 | 0.00 | 0.00 | 0.00 | 99 | 1013.6 |
| 20260906091809 | 75 | 94 | 0.0 | 0.0 | 0.00 | 0.00 | 0.00 | 99 | 1013.5 |
| 20260906091305 | 75 | 98 | 0.0 | 0.0 | 0.00 | 0.00 | 0.00 | 99 | 1013.5 |
| 20260906090801 | 75 | 94 | 0.0 | 0.0 | 0.00 | 0.00 | 0.00 | 99 | 1013.6 |
| 20260906090300 | 75 | 93 | 0.0 | 0.0 | 0.00 | 0.00 | 0.00 | 99 | 1013.5 |
| 20260906085801 | 75 | 93 | 0.0 | 0.0 | 0.00 | 0.00 | 0.00 | 99 | 1013.4 |
| 20260906085259 | 75 | 93 | 0.0 | 0.0 | 0.00 | 0.00 | 0.00 | 99 | 1013.3 |
| 20260906084754 | 75 | 100 | 0.0 | 0.0 | 0.00 | 0.00 | 0.00 | 99 | 1013.2 |
| 20260906084254 | 75 | 100 | 0.0 | 0.0 | 0.00 | 0.00 | 0.00 | 99 | 1013.0 |
| 20260906083749 | 75 | 100 | 0.0 | 0.0 | 0.00 | 0.00 | 0.00 | 99 | 1013.1 |
| 20260906083245 | 75 | 104 | 0.0 | 0.0 | 0.00 | 0.00 | 0.00 | 99 | 1013.0 |
| 20260906082739 | 75 | 94 | 0.0 | 0.0 | 0.00 | 0.00 | 0.00 | 99 | 1013.0 |
| 20260906082234 | 75 | 92 | 0.0 | 0.0 | 0.00 | 0.00 | 0.00 | 99 | 1012.9 |
| 20260906081730 | 75 | 90 | 0.0 | 0.0 | 0.00 | 0.00 | 0.00 | 99 | 1013.1 |
| 20260906081225 | 75 | 94 | 0.0 | 0.0 | 0.00 | 0.00 | 0.00 | 99 | 1013.1 |
| 20260906080722 | 75 | 92 | 0.0 | 0.0 | 0.00 | 0.00 | 0.00 | 99 | 1013.2 |
| 20260906080218 | 75 | 94 | 0.0 | 0.0 | 0.00 | 0.00 | 0.00 | 99 | 1013.1 |
| 20260906075717 | 75 | 92 | 0.0 | 0.0 | 0.00 | 0.00 | 0.00 | 99 | 1013.0 |
| 20260906075212 | 75 | 93 | 0.0 | 0.0 | 0.00 | 0.00 | 0.00 | 99 | 1013.3 |
| 20260906074707 | 75 | 94 | 0.0 | 0.0 | 0.00 | 0.00 | 0.00 | 99 | 1013.2 |
| 20260906074207 | 75 | 94 | 0.0 | 0.0 | 0.00 | 0.00 | 0.00 | 99 | 1013.2 |
| 20260906073701 | 75 | 98 | 0.0 | 0.0 | 0.00 | 0.00 | 0.00 | 99 | 1013.3 |
| 20260906073157 | 75 | 98 | 0.0 | 0.0 | 0.00 | 0.00 | 0.00 | 99 | 1013.3 |
| 20260906072652 | 75 | 92 | 0.0 | 0.0 | 0.00 | 0.00 | 0.00 | 99 | 1013.4 |
| 20260906072148 | 75 | 88 | 0.0 | 0.0 | 0.00 | 0.00 | 0.00 | 99 | 1013.3 |
| 20260906071644 | 76 | 91 | 0.0 | 0.0 | 0.00 | 0.00 | 0.00 | 99 | 1013.5 |
| 20260906071143 | 75 | 92 | 0.0 | 0.0 | 0.00 | 0.00 | 0.00 | 99 | 1013.4 |
| 20260906070640 | 76 | 96 | 0.0 | 0.0 | 0.00 | 0.00 | 0.00 | 99 | 1013.3 |
| 20260906070135 | 76 | 94 | 0.0 | 0.0 | 0.00 | 0.00 | 0.00 | 99 | 1013.5 |
| 20260906065635 | 76 | 93 | 0.0 | 0.0 | 0.00 | 0.00 | 0.00 | 99 | 1013.4 |
| 20260906065130 | 76 | 94 | 0.0 | 0.0 | 0.00 | 0.00 | 0.00 | 99 | 1013.4 |
| 20260906064626 | 76 | 104 | 0.0 | 0.0 | 0.00 | 0.00 | 0.00 | 99 | 1013.6 |
| 20260906064121 | 75 | 88 | 0.0 | 0.0 | 0.00 | 0.00 | 0.00 | 99 | 1013.6 |
| 20260906063616 | 75 | 93 | 0.0 | 0.0 | 0.00 | 0.00 | 0.00 | 99 | 1013.4 |
| 20260906063112 | 75 | 88 | 0.0 | 0.0 | 0.00 | 0.00 | 0.00 | 99 | 1013.2 |
| 20260906062607 | 75 | 92 | 0.0 | 0.0 | 0.00 | 0.00 | 0.00 | 99 | 1013.2 |
| 20260906062106 | 75 | 104 | 0.0 | 0.0 | 0.00 | 0.00 | 0.00 | 99 | 1013.3 |
| 20260906061603 | 75 | 93 | 0.0 | 0.0 | 0.00 | 0.00 | 0.00 | 99 | 1013.2 |
| 20260906061102 | 75 | 93 | 0.0 | 0.0 | 0.00 | 0.00 | 0.00 | 99 | 1013.6 |
| 20260906060559 | 75 | 93 | 0.0 | 0.0 | 0.00 | 0.00 | 0.00 | 99 | 1013.7 |
| 20260906060056 | 75 | 93 | 0.0 | 0.0 | 0.00 | 0.00 | 0.00 | 99 | 1013.7 |
| 20260906055551 | 76 | 98 | 0.0 | 0.0 | 0.00 | 0.00 | 0.00 | 99 | 1013.8 |
| 20260906055046 | 76 | 98 | 0.0 | 0.0 | 0.00 | 0.00 | 0.00 | 99 | 1013.9 |
| 20260906054541 | 76 | 100 | 0.0 | 0.0 | 0.00 | 0.00 | 0.00 | 99 | 1013.9 |
| 20260906054036 | 76 | 99 | 0.0 | 0.0 | 0.00 | 0.00 | 0.00 | 99 | 1014.0 |
| 20260906053532 | 76 | 92 | 0.0 | 0.0 | 0.00 | 0.00 | 0.00 | 99 | 1013.9 |
| 20260906053028 | 76 | 92 | 0.0 | 0.0 | 0.00 | 0.00 | 0.00 | 99 | 1014.2 |
| 20260906052523 | 76 | 86 | 0.0 | 0.0 | 0.00 | 0.00 | 0.00 | 99 | 1013.9 |
| 20260906052021 | 76 | 99 | 0.0 | 0.0 | 0.00 | 0.00 | 0.00 | 99 | 1014.0 |
| 20260906051516 | 76 | 104 | 0.0 | 0.0 | 0.00 | 0.00 | 0.00 | 99 | 1013.8 |
| 20260906051011 | 76 | 82 | 0.0 | 0.0 | 0.00 | 0.00 | 0.00 | 99 | 1014.1 |
| 20260906050511 | 76 | 85 | 0.0 | 0.0 | 0.00 | 0.00 | 0.00 | 99 | 1014.0 |
| 20260906050006 | 76 | 94 | 0.0 | 0.0 | 0.00 | 0.00 | 0.00 | 99 | 1013.9 |
| 20260906045504 | 76 | 109 | 0.0 | 0.0 | 0.00 | 0.00 | 0.00 | 99 | 1013.6 |
| 20260906045000 | 76 | 107 | 0.0 | 0.0 | 0.00 | 0.00 | 0.00 | 99 | 1013.9 |
| 20260906044455 | 75 | 106 | 0.0 | 0.0 | 0.00 | 0.00 | 0.00 | 99 | 1013.9 |
| 20260906043951 | 75 | 98 | 0.0 | 0.0 | 0.00 | 0.00 | 0.00 | 99 | 1014.0 |
| 20260906043447 | 75 | 101 | 0.0 | 0.0 | 0.00 | 0.00 | 0.00 | 99 | 1013.8 |
| 20260906042943 | 75 | 96 | 0.0 | 0.0 | 0.00 | 0.00 | 0.00 | 99 | 1014.0 |
| 20260906042442 | 76 | 94 | 0.0 | 0.0 | 0.00 | 0.00 | 0.00 | 99 | 1013.8 |
| 20260906041942 | 76 | 115 | 0.0 | 0.0 | 0.00 | 0.00 | 0.00 | 99 | 1014.0 |
| 20260906041438 | 76 | 100 | 0.0 | 0.0 | 0.00 | 0.00 | 0.00 | 99 | 1014.3 |
| 20260906040937 | 76 | 104 | 0.0 | 0.0 | 0.00 | 0.00 | 0.00 | 99 | 1014.2 |
| 20260906040433 | 76 | 104 | 0.0 | 0.0 | 0.00 | 0.00 | 0.00 | 99 | 1014.3 |
| 20260906035928 | 75 | 101 | 0.0 | 0.0 | 0.00 | 0.63 | 0.63 | 99 | 1014.3 |
| 20260906035429 | 75 | 98 | 0.0 | 0.0 | 0.00 | 0.63 | 0.63 | 99 | 1014.6 |
| 20260906034924 | 75 | 93 | 0.0 | 0.0 | 0.00 | 0.63 | 0.63 | 99 | 1014.7 |
| 20260906034419 | 76 | 93 | 0.0 | 0.0 | 0.00 | 0.63 | 0.63 | 99 | 1014.8 |
| 20260906033914 | 76 | 93 | 0.0 | 0.0 | 0.00 | 0.63 | 0.63 | 99 | 1014.7 |
| 20260906033414 | 76 | 96 | 0.0 | 0.0 | 0.00 | 0.63 | 0.63 | 99 | 1014.9 |
| 20260906032910 | 76 | 93 | 0.0 | 0.0 | 0.00 | 0.63 | 0.63 | 99 | 1015.0 |
| 20260906032407 | 76 | 86 | 0.0 | 0.0 | 0.00 | 0.63 | 0.63 | 99 | 1014.9 |
| 20260906031907 | 76 | 88 | 0.0 | 0.0 | 0.00 | 0.63 | 0.63 | 99 | 1015.0 |
| 20260906031402 | 76 | 89 | 0.0 | 0.0 | 0.00 | 0.63 | 0.63 | 99 | 1014.8 |
| 20260906030857 | 76 | 88 | 0.0 | 0.0 | 0.00 | 0.63 | 0.63 | 99 | 1014.6 |
| 20260906030353 | 76 | 98 | 0.0 | 0.0 | 0.00 | 0.63 | 0.63 | 99 | 1014.8 |
| 20260906025852 | 76 | 98 | 0.0 | 0.0 | 0.00 | 0.63 | 0.63 | 99 | 1015.0 |
| 20260906025346 | 76 | 89 | 0.0 | 0.0 | 0.00 | 0.63 | 0.63 | 99 | 1014.8 |
| 20260906024845 | 76 | 98 | 0.0 | 0.0 | 0.00 | 0.63 | 0.63 | 99 | 1015.0 |
| 20260906024344 | 76 | 104 | 0.0 | 0.0 | 0.00 | 0.63 | 0.63 | 99 | 1014.7 |
| 20260906023840 | 76 | 89 | 0.0 | 0.0 | 0.00 | 0.63 | 0.63 | 99 | 1014.9 |
| 20260906023336 | 76 | 89 | 0.0 | 0.0 | 0.00 | 0.63 | 0.63 | 99 | 1014.8 |
| 20260906022831 | 76 | 89 | 0.0 | 0.0 | 0.00 | 0.63 | 0.63 | 99 | 1014.9 |
| 20260906022326 | 76 | 92 | 0.0 | 0.0 | 0.00 | 0.63 | 0.63 | 99 | 1014.6 |
| 20260906021822 | 76 | 110 | 0.0 | 0.0 | 0.00 | 0.63 | 0.63 | 99 | 1014.5 |
| 20260906021321 | 76 | 92 | 0.0 | 0.0 | 0.00 | 0.63 | 0.63 | 99 | 1014.5 |
| 20260906020816 | 77 | 91 | 0.0 | 0.0 | 0.00 | 0.63 | 0.63 | 99 | 1014.5 |
| 20260906020315 | 76 | 93 | 0.0 | 0.0 | 0.00 | 0.63 | 0.63 | 99 | 1014.6 |
| 20260906015810 | 77 | 94 | 0.0 | 0.0 | 0.00 | 0.63 | 0.63 | 99 | 1014.4 |
| 20260906015309 | 77 | 91 | 0.0 | 0.0 | 0.00 | 0.63 | 0.63 | 99 | 1014.3 |
| 20260906014809 | 77 | 94 | 0.0 | 0.0 | 0.00 | 0.63 | 0.63 | 99 | 1014.2 |
| 20260906014304 | 77 | 98 | 0.0 | 0.0 | 0.00 | 0.63 | 0.63 | 99 | 1014.4 |
| 20260906013801 | 77 | 94 | 0.0 | 0.0 | 0.00 | 0.63 | 0.63 | 99 | 1014.6 |
| 20260906013301 | 77 | 94 | 0.0 | 0.0 | 0.00 | 0.63 | 0.63 | 99 | 1014.2 |
| 20260906012756 | 77 | 98 | 0.0 | 0.0 | 0.00 | 0.63 | 0.63 | 99 | 1014.1 |
| 20260906012251 | 77 | 90 | 0.0 | 0.0 | 0.00 | 0.63 | 0.63 | 99 | 1013.9 |
| 20260906011746 | 77 | 94 | 0.0 | 0.0 | 0.00 | 0.63 | 0.63 | 99 | 1014.1 |
| 20260906011246 | 77 | 95 | 0.0 | 0.0 | 0.00 | 0.63 | 0.63 | 99 | 1014.0 |
| 20260906010742 | 77 | 91 | 0.0 | 0.0 | 0.00 | 0.63 | 0.63 | 99 | 1014.0 |
| 20260906010238 | 78 | 94 | 0.0 | 0.0 | 0.00 | 0.63 | 0.63 | 99 | 1013.8 |
| 20260906005733 | 78 | 94 | 0.0 | 0.0 | 0.00 | 0.63 | 0.63 | 99 | 1013.7 |
| 20260906005232 | 78 | 95 | 0.0 | 0.0 | 0.00 | 0.63 | 0.63 | 99 | 1013.7 |
| 20260906004731 | 78 | 99 | 0.0 | 0.0 | 0.00 | 0.63 | 0.63 | 99 | 1013.6 |
| 20260906004227 | 78 | 110 | 0.0 | 0.0 | 0.00 | 0.63 | 0.63 | 99 | 1013.3 |
| 20260906003721 | 78 | 109 | 0.0 | 0.0 | 0.00 | 0.63 | 0.63 | 99 | 1013.4 |
| 20260906003217 | 78 | 105 | 0.0 | 0.0 | 0.00 | 0.63 | 0.63 | 99 | 1013.7 |
| 20260906002717 | 78 | 94 | 0.0 | 0.0 | 0.00 | 0.63 | 0.63 | 98 | 1013.5 |
| 20260906002212 | 78 | 94 | 0.0 | 0.0 | 0.00 | 0.63 | 0.63 | 97 | 1013.3 |
| 20260906001707 | 79 | 94 | 0.0 | 0.0 | 0.00 | 0.63 | 0.63 | 97 | 1013.2 |
| 20260906001207 | 79 | 89 | 0.0 | 0.0 | 0.00 | 0.63 | 0.63 | 96 | 1013.3 |
| 20260906000703 | 79 | 91 | 0.0 | 0.0 | 0.00 | 0.63 | 0.63 | 95 | 1013.4 |
| 20260906000158 | 80 | 88 | 0.0 | 0.0 | 0.00 | 0.63 | 0.63 | 94 | 1013.5 |
| 20260905235657 | 80 | 101 | 0.0 | 0.0 | 0.00 | 0.63 | 0.63 | 93 | 1013.1 |
| 20260905235152 | 80 | 93 | 0.0 | 0.0 | 0.00 | 0.63 | 0.63 | 93 | 1013.4 |
| 20260905234647 | 80 | 95 | 0.0 | 0.0 | 0.00 | 0.63 | 0.63 | 93 | 1013.1 |
| 20260905234143 | 81 | 92 | 0.0 | 0.0 | 0.00 | 0.63 | 0.63 | 92 | 1013.2 |
| 20260905233638 | 81 | 106 | 0.0 | 0.0 | 0.00 | 0.63 | 0.63 | 91 | 1013.1 |
| 20260905233137 | 82 | 77 | 1.0 | 1.0 | 0.00 | 0.63 | 0.63 | 91 | 1013.1 |
| 20260905232632 | 82 | 338 | 0.0 | 1.0 | 0.00 | 0.63 | 0.63 | 90 | 1013.2 |
| 20260905232128 | 82 | 92 | 1.0 | 1.0 | 0.00 | 0.63 | 0.63 | 90 | 1013.0 |
| 20260905231623 | 82 | 103 | 0.0 | 0.0 | 0.00 | 0.63 | 0.63 | 92 | 1013.3 |
| 20260905231119 | 83 | 68 | 1.0 | 1.0 | 0.00 | 0.63 | 0.63 | 91 | 1013.0 |
| 20260905230615 | 84 | 279 | 1.0 | 2.0 | 0.00 | 0.63 | 0.63 | 90 | 1013.2 |
| 20260905230113 | 84 | 79 | 1.0 | 2.0 | 0.00 | 0.63 | 0.63 | 89 | 1013.5 |
| 20260905225612 | 85 | 200 | 2.0 | 2.0 | 0.00 | 0.63 | 0.63 | 88 | 1013.4 |
| 20260905225108 | 86 | 17 | 3.0 | 3.0 | 0.00 | 0.63 | 0.63 | 87 | 1013.3 |
| 20260905224607 | 89 | 250 | 2.0 | 2.0 | 0.00 | 0.63 | 0.63 | 87 | 1013.6 |
| 20260905224107 | 89 | 99 | 0.0 | 0.0 | 0.00 | 0.63 | 0.63 | 84 | 1013.4 |
| 20260905223604 | 89 | 102 | 0.0 | 0.0 | 0.00 | 0.63 | 0.63 | 81 | 1013.5 |
| 20260905223101 | 90 | 96 | 0.0 | 0.0 | 0.00 | 0.63 | 0.63 | 81 | 1013.6 |
| 20260905222600 | 90 | 102 | 0.0 | 0.0 | 0.00 | 0.63 | 0.63 | 80 | 1013.5 |
| 20260905222055 | 89 | 96 | 0.0 | 0.0 | 0.00 | 0.63 | 0.63 | 81 | 1013.7 |
| 20260905221552 | 89 | 128 | 0.0 | 1.0 | 0.00 | 0.63 | 0.63 | 82 | 1013.5 |
| 20260905221047 | 90 | 94 | 0.0 | 0.0 | 0.00 | 0.63 | 0.63 | 78 | 1013.6 |
| 20260905220543 | 92 | 90 | 0.0 | 0.0 | 0.00 | 0.63 | 0.63 | 74 | 1013.9 |
| 20260905220039 | 92 | 10 | 1.0 | 2.0 | 0.00 | 0.63 | 0.63 | 74 | 1013.8 |
| 20260905215538 | 92 | 107 | 0.0 | 1.0 | 0.00 | 0.63 | 0.63 | 74 | 1013.9 |
| 20260905215035 | 92 | 92 | 0.0 | 0.0 | 0.00 | 0.63 | 0.63 | 75 | 1013.9 |
| 20260905214530 | 93 | 276 | 2.0 | 2.0 | 0.00 | 0.63 | 0.63 | 71 | 1013.7 |
| 20260905214025 | 93 | 216 | 1.0 | 1.0 | 0.00 | 0.63 | 0.63 | 73 | 1014.1 |
| 20260905213520 | 92 | 139 | 0.0 | 1.0 | 0.00 | 0.63 | 0.63 | 74 | 1014.0 |
| 20260905213016 | 92 | 105 | 1.0 | 1.0 | 0.00 | 0.63 | 0.63 | 73 | 1014.2 |
| 20260905212511 | 92 | 218 | 1.0 | 1.0 | 0.00 | 0.63 | 0.63 | 76 | 1013.9 |
| 20260905212010 | 92 | 72 | 1.0 | 1.0 | 0.00 | 0.63 | 0.63 | 72 | 1013.5 |
| 20260905211505 | 92 | 102 | 1.0 | 1.0 | 0.00 | 0.63 | 0.63 | 75 | 1013.6 |
| 20260905211001 | 92 | 308 | 1.0 | 2.0 | 0.00 | 0.63 | 0.63 | 73 | 1013.5 |
| 20260905210457 | 92 | 135 | 1.0 | 2.0 | 0.00 | 0.63 | 0.63 | 73 | 1013.6 |
| 20260905205956 | 93 | 82 | 0.0 | 1.0 | 0.00 | 0.63 | 0.63 | 73 | 1013.6 |
| 20260905205451 | 92 | 142 | 1.0 | 1.0 | 0.00 | 0.63 | 0.63 | 74 | 1013.6 |
| 20260905204949 | 90 | 23 | 3.0 | 3.0 | 0.00 | 0.63 | 0.63 | 77 | 1013.7 |
| 20260905204445 | 91 | 95 | 0.0 | 0.0 | 0.00 | 0.63 | 0.63 | 77 | 1013.6 |
| 20260905203944 | 92 | 226 | 3.0 | 5.0 | 0.00 | 0.63 | 0.63 | 75 | 1013.9 |
| 20260905203440 | 92 | 334 | 2.0 | 2.0 | 0.00 | 0.63 | 0.63 | 75 | 1013.9 |
| 20260905202936 | 91 | 88 | 0.0 | 0.0 | 0.00 | 0.63 | 0.63 | 74 | 1014.0 |
| 20260905202431 | 90 | 134 | 2.0 | 3.0 | 0.00 | 0.63 | 0.63 | 78 | 1014.3 |
| 20260905201926 | 90 | 90 | 0.0 | 1.0 | 0.00 | 0.63 | 0.63 | 80 | 1014.4 |
| 20260905201421 | 91 | 83 | 0.0 | 1.0 | 0.00 | 0.63 | 0.63 | 79 | 1014.4 |
| 20260905200921 | 90 | 86 | 1.0 | 1.0 | 0.00 | 0.63 | 0.63 | 80 | 1014.1 |
| 20260905200417 | 89 | 161 | 2.0 | 2.0 | 0.00 | 0.63 | 0.63 | 81 | 1014.3 |
| 20260905195915 | 88 | 73 | 0.0 | 0.0 | 0.00 | 0.63 | 0.63 | 84 | 1014.3 |
| 20260905195410 | 87 | 143 | 1.0 | 1.0 | 0.00 | 0.63 | 0.63 | 85 | 1014.2 |
| 20260905194906 | 87 | 12 | 0.0 | 1.0 | 0.00 | 0.63 | 0.63 | 88 | 1014.4 |
| 20260905194406 | 86 | 205 | 0.0 | 0.0 | 0.00 | 0.63 | 0.63 | 89 | 1014.3 |
| 20260905193906 | 86 | 91 | 0.0 | 0.0 | 0.00 | 0.63 | 0.63 | 89 | 1014.5 |
| 20260905193400 | 86 | 316 | 1.0 | 2.0 | 0.00 | 0.63 | 0.63 | 88 | 1014.4 |
| 20260905192856 | 86 | 85 | 0.0 | 0.0 | 0.00 | 0.63 | 0.63 | 90 | 1014.6 |
| 20260905192351 | 86 | 101 | 1.0 | 2.0 | 0.00 | 0.63 | 0.63 | 88 | 1014.7 |
| 20260905191851 | 86 | 137 | 2.0 | 3.0 | 0.00 | 0.63 | 0.63 | 89 | 1014.8 |
| 20260905191350 | 85 | 92 | 1.0 | 2.0 | 0.00 | 0.63 | 0.63 | 92 | 1014.7 |
| 20260905190849 | 83 | 102 | 0.0 | 0.0 | 0.00 | 0.63 | 0.63 | 99 | 1014.6 |
| 20260905190348 | 81 | 17 | 1.0 | 1.0 | 0.00 | 0.63 | 0.63 | 99 | 1014.7 |
| 20260905185847 | 80 | 77 | 1.0 | 1.0 | 0.00 | 0.63 | 0.63 | 99 | 1014.7 |
| 20260905185343 | 81 | 96 | 0.0 | 0.0 | 0.00 | 0.63 | 0.63 | 99 | 1014.9 |
| 20260905184841 | 80 | 71 | 1.0 | 1.0 | 0.00 | 0.63 | 0.63 | 99 | 1015.1 |
| 20260905184341 | 79 | 95 | 0.0 | 0.0 | 0.00 | 0.63 | 0.63 | 99 | 1015.1 |
| 20260905183839 | 79 | 82 | 0.0 | 1.0 | 0.00 | 0.63 | 0.63 | 99 | 1015.1 |
| 20260905183336 | 78 | 62 | 1.0 | 1.0 | 0.00 | 0.63 | 0.63 | 99 | 1014.9 |
| 20260905182836 | 78 | 82 | 0.0 | 1.0 | 0.00 | 0.63 | 0.63 | 99 | 1015.0 |
| 20260905182335 | 78 | 93 | 0.0 | 1.0 | 0.00 | 0.63 | 0.63 | 99 | 1015.1 |
| 20260905181831 | 79 | 73 | 2.0 | 2.0 | 0.00 | 0.63 | 0.63 | 99 | 1015.3 |
| 20260905181330 | 78 | 65 | 1.0 | 2.0 | 0.00 | 0.63 | 0.63 | 99 | 1015.5 |
| 20260905180829 | 79 | 91 | 1.0 | 1.0 | 0.07 | 0.63 | 0.63 | 99 | 1015.7 |
| 20260905180325 | 80 | 81 | 1.0 | 2.0 | 0.07 | 0.63 | 0.63 | 99 | 1015.5 |
| 20260905175820 | 80 | 82 | 1.0 | 1.0 | 0.00 | 0.62 | 0.62 | 99 | 1015.7 |
| 20260905175320 | 79 | 75 | 0.0 | 0.0 | 0.00 | 0.62 | 0.62 | 99 | 1015.7 |
| 20260905174815 | 79 | 73 | 0.0 | 0.0 | 0.00 | 0.62 | 0.62 | 99 | 1015.7 |
| 20260905174311 | 79 | 95 | 1.0 | 1.0 | 0.00 | 0.62 | 0.62 | 99 | 1015.7 |
| 20260905173806 | 79 | 87 | 0.0 | 0.0 | 0.05 | 0.62 | 0.62 | 99 | 1015.6 |
| 20260905173302 | 79 | 74 | 2.0 | 2.0 | 0.17 | 0.62 | 0.62 | 99 | 1015.7 |
| 20260905172802 | 79 | 93 | 0.0 | 0.0 | 0.42 | 0.61 | 0.61 | 99 | 1016.0 |
| 20260905172300 | 79 | 57 | 1.0 | 2.0 | 1.21 | 0.59 | 0.59 | 99 | 1016.0 |
| 20260905171757 | 79 | 26 | 1.0 | 1.0 | 1.72 | 0.53 | 0.53 | 99 | 1016.0 |
| 20260905171253 | 80 | 140 | 1.0 | 1.0 | 1.56 | 0.41 | 0.41 | 99 | 1016.0 |
| 20260905170749 | 81 | 118 | 1.0 | 1.0 | 1.06 | 0.25 | 0.25 | 99 | 1016.0 |
| 20260905170245 | 82 | 106 | 1.0 | 1.0 | 0.42 | 0.13 | 0.13 | 99 | 1015.9 |
| 20260905165744 | 82 | 106 | 1.0 | 1.0 | 0.00 | 0.06 | 0.06 | 99 | 1015.9 |
| 20260905165240 | 82 | 134 | 2.0 | 2.0 | 0.00 | 0.06 | 0.06 | 99 | 1015.9 |
| 20260905164739 | 82 | 97 | 1.0 | 1.0 | 0.00 | 0.06 | 0.06 | 99 | 1016.0 |
| 20260905164234 | 82 | 104 | 1.0 | 1.0 | 0.31 | 0.06 | 0.06 | 99 | 1016.1 |
| 20260905163730 | 85 | 85 | 0.0 | 0.0 | 0.24 | 0.05 | 0.05 | 91 | 1015.8 |
| 20260905163226 | 87 | 123 | 2.0 | 3.0 | 0.00 | 0.01 | 0.01 | 85 | 1016.1 |
| 20260905162722 | 89 | 95 | 0.0 | 0.0 | 0.00 | 0.01 | 0.01 | 83 | 1016.2 |
| 20260905162222 | 89 | 121 | 1.0 | 1.0 | 0.00 | 0.01 | 0.01 | 80 | 1016.2 |
| 20260905161717 | 91 | 97 | 1.0 | 1.0 | 0.00 | 0.01 | 0.01 | 78 | 1016.2 |
| 20260905161215 | 92 | 67 | 0.0 | 1.0 | 0.00 | 0.01 | 0.01 | 75 | 1016.5 |
| 20260905160713 | 90 | 15 | 3.0 | 5.0 | 0.00 | 0.01 | 0.01 | 80 | 1016.3 |
| 20260905160214 | 90 | 357 | 1.0 | 1.0 | 0.00 | 0.01 | 0.01 | 81 | 1016.4 |
| 20260905155708 | 90 | 83 | 3.0 | 5.0 | 0.00 | 0.01 | 0.01 | 81 | 1016.3 |
| 20260905155207 | 93 | 186 | 3.0 | 5.0 | 0.00 | 0.01 | 0.01 | 75 | 1016.5 |
| 20260905154701 | 93 | 196 | 2.0 | 2.0 | 0.00 | 0.01 | 0.01 | 75 | 1016.2 |
| 20260905154157 | 91 | 57 | 1.0 | 1.0 | 0.00 | 0.01 | 0.01 | 77 | 1016.5 |
| 20260905153653 | 92 | 87 | 1.0 | 2.0 | 0.00 | 0.01 | 0.01 | 77 | 1016.5 |
| 20260905153148 | 91 | 90 | 0.0 | 0.0 | 0.00 | 0.01 | 0.01 | 79 | 1016.5 |
| 20260905152643 | 90 | 81 | 1.0 | 1.0 | 0.00 | 0.01 | 0.01 | 82 | 1016.4 |
| 20260905152138 | 89 | 286 | 2.0 | 5.0 | 0.00 | 0.01 | 0.01 | 79 | 1016.6 |
| 20260905151632 | 91 | 253 | 5.0 | 5.0 | 0.00 | 0.01 | 0.01 | 80 | 1016.7 |
| 20260905151128 | 89 | 88 | 0.0 | 0.0 | 0.00 | 0.01 | 0.01 | 85 | 1016.7 |
| 20260905150623 | 87 | 91 | 1.0 | 1.0 | 0.00 | 0.01 | 0.01 | 90 | 1016.8 |
| 20260905150121 | 87 | 146 | 1.0 | 1.0 | 0.00 | 0.01 | 0.01 | 86 | 1016.6 |
| 20260905145620 | 89 | 98 | 0.0 | 1.0 | 0.00 | 0.01 | 0.01 | 85 | 1016.7 |
| 20260905145119 | 89 | 308 | 3.0 | 3.0 | 0.00 | 0.01 | 0.01 | 86 | 1016.6 |
| 20260905144614 | 88 | 53 | 1.0 | 1.0 | 0.00 | 0.01 | 0.01 | 87 | 1016.6 |
| 20260905144114 | 87 | 278 | 1.0 | 2.0 | 0.00 | 0.01 | 0.01 | 88 | 1016.7 |
| 20260905143614 | 88 | 268 | 3.0 | 3.0 | 0.00 | 0.01 | 0.01 | 87 | 1016.9 |
| 20260905143108 | 87 | 92 | 3.0 | 5.0 | 0.00 | 0.01 | 0.01 | 88 | 1016.7 |
| 20260905142608 | 87 | 190 | 3.0 | 5.0 | 0.00 | 0.01 | 0.01 | 88 | 1016.8 |
| 20260905142108 | 86 | 179 | 2.0 | 2.0 | 0.00 | 0.01 | 0.01 | 92 | 1016.8 |
| 20260905141607 | 86 | 27 | 1.0 | 1.0 | 0.00 | 0.01 | 0.01 | 93 | 1016.9 |
| 20260905141104 | 85 | 121 | 2.0 | 3.0 | 0.00 | 0.01 | 0.01 | 94 | 1017.0 |
| 20260905140559 | 84 | 149 | 2.0 | 2.0 | 0.00 | 0.01 | 0.01 | 96 | 1017.0 |
| 20260905140058 | 82 | 93 | 0.0 | 0.0 | 0.00 | 0.01 | 0.01 | 99 | 1017.0 |
| 20260905135553 | 81 | 213 | 2.0 | 2.0 | 0.00 | 0.01 | 0.01 | 99 | 1016.8 |
| 20260905135053 | 80 | 89 | 1.0 | 1.0 | 0.00 | 0.01 | 0.01 | 99 | 1016.9 |
| 20260905134548 | 79 | 77 | 0.0 | 1.0 | 0.00 | 0.01 | 0.01 | 99 | 1016.8 |
| 20260905134047 | 79 | 119 | 2.0 | 3.0 | 0.00 | 0.01 | 0.01 | 99 | 1016.6 |
| 20260905133543 | 79 | 120 | 0.0 | 0.0 | 0.00 | 0.01 | 0.01 | 99 | 1016.8 |
| 20260905133042 | 79 | 79 | 0.0 | 0.0 | 0.00 | 0.01 | 0.01 | 99 | 1016.9 |
| 20260905132542 | 79 | 72 | 0.0 | 1.0 | 0.00 | 0.01 | 0.01 | 99 | 1016.6 |
| 20260905132037 | 79 | 152 | 0.0 | 0.0 | 0.00 | 0.01 | 0.01 | 99 | 1016.8 |
| 20260905131533 | 78 | 112 | 0.0 | 0.0 | 0.00 | 0.01 | 0.01 | 99 | 1016.6 |
| 20260905131028 | 78 | 89 | 0.0 | 0.0 | 0.00 | 0.01 | 0.01 | 99 | 1016.6 |
| 20260905130527 | 78 | 107 | 0.0 | 1.0 | 0.00 | 0.01 | 0.01 | 99 | 1016.8 |
| 20260905130022 | 78 | 116 | 0.0 | 1.0 | 0.00 | 0.01 | 0.01 | 99 | 1016.5 |
| 20260905125521 | 77 | 103 | 0.0 | 0.0 | 0.00 | 0.01 | 0.01 | 99 | 1016.6 |